| time (UTC) | temp F | wind direction | speed knots | gust knots | rain 1hr in | rain 24hr in | rain mn in | humidity % | barometer mb |
| 20260505013040 | 61 | 82 | 1.7 | 5.2 | 0.00 | 0.00 | 0.00 | 54 | 1008.0 |
| 20260505011549 | 62 | 78 | 1.7 | 4.3 | 0.00 | 0.00 | 0.00 | 52 | 1007.8 |
| 20260505010039 | 62 | 80 | 2.6 | 6.1 | 0.00 | 0.00 | 0.00 | 52 | 1007.5 |
| 20260505004537 | 63 | 83 | 1.7 | 4.3 | 0.00 | 0.00 | 0.00 | 51 | 1007.2 |
| 20260505003037 | 64 | 61 | 0.9 | 3.5 | 0.00 | 0.00 | 0.00 | 50 | 1006.9 |
| 20260505001536 | 64 | 82 | 2.6 | 5.2 | 0.00 | 0.00 | 0.00 | 48 | 1006.5 |
| 20260505000035 | 65 | 69 | 2.6 | 7.8 | 0.00 | 0.00 | 0.00 | 47 | 1006.2 |
| 20260504234534 | 66 | 223 | 4.3 | 9.6 | 0.00 | 0.00 | 0.00 | 45 | 1005.9 |
| 20260504233036 | 67 | 207 | 3.5 | 7.8 | 0.00 | 0.00 | 0.00 | 43 | 1005.5 |
| 20260504231533 | 69 | 74 | 1.7 | 4.3 | 0.00 | 0.00 | 0.00 | 40 | 1005.2 |
| 20260504230032 | 71 | 81 | 2.6 | 7.0 | 0.00 | 0.00 | 0.00 | 35 | 1004.9 |
| 20260504224531 | 71 | 82 | 3.5 | 7.8 | 0.00 | 0.00 | 0.00 | 35 | 1004.8 |
| 20260504223030 | 71 | 240 | 4.3 | 8.7 | 0.00 | 0.00 | 0.00 | 35 | 1004.6 |
| 20260504221529 | 71 | 225 | 3.5 | 7.0 | 0.00 | 0.00 | 0.00 | 35 | 1004.6 |
| 20260504220028 | 71 | 231 | 5.2 | 7.0 | 0.00 | 0.00 | 0.00 | 35 | 1004.8 |
| 20260504214527 | 71 | 232 | 3.5 | 7.0 | 0.00 | 0.00 | 0.00 | 35 | 1004.7 |
| 20260504213027 | 72 | 233 | 6.1 | 9.6 | 0.00 | 0.00 | 0.00 | 33 | 1004.8 |
| 20260504211527 | 73 | 252 | 4.3 | 10.4 | 0.00 | 0.00 | 0.00 | 32 | 1004.9 |
| 20260504210025 | 72 | 236 | 3.5 | 7.0 | 0.00 | 0.00 | 0.00 | 33 | 1004.7 |
| 20260504204526 | 72 | 254 | 5.2 | 10.4 | 0.00 | 0.00 | 0.00 | 32 | 1004.7 |
| 20260504203024 | 72 | 240 | 4.3 | 9.6 | 0.00 | 0.00 | 0.00 | 32 | 1004.7 |
| 20260504201521 | 72 | 298 | 2.6 | 12.2 | 0.00 | 0.00 | 0.00 | 33 | 1004.7 |
| 20260504200034 | 71 | 236 | 2.6 | 7.8 | 0.00 | 0.00 | 0.00 | 33 | 1004.8 |
| 20260504194521 | 71 | 252 | 4.3 | 10.4 | 0.00 | 0.00 | 0.00 | 32 | 1005.0 |
| 20260504193018 | 72 | 238 | 6.1 | 9.6 | 0.00 | 0.00 | 0.00 | 31 | 1004.9 |
| 20260504191527 | 71 | 214 | 5.2 | 10.4 | 0.00 | 0.00 | 0.00 | 32 | 1004.9 |
| 20260504190013 | 71 | 233 | 7.0 | 12.2 | 0.00 | 0.00 | 0.00 | 31 | 1005.1 |
| 20260504184513 | 70 | 239 | 6.1 | 12.2 | 0.00 | 0.00 | 0.00 | 31 | 1005.4 |
| 20260504183020 | 70 | 227 | 5.2 | 12.2 | 0.00 | 0.00 | 0.00 | 33 | 1005.5 |
| 20260504181509 | 70 | 237 | 7.0 | 15.6 | 0.00 | 0.00 | 0.00 | 32 | 1005.5 |
| 20260504180006 | 70 | 204 | 5.2 | 15.6 | 0.00 | 0.00 | 0.00 | 33 | 1005.7 |
| 20260504174505 | 70 | 256 | 6.1 | 10.4 | 0.00 | 0.00 | 0.00 | 33 | 1005.7 |
| 20260504173003 | 69 | 267 | 4.3 | 8.7 | 0.00 | 0.00 | 0.00 | 35 | 1005.9 |
| 20260504171501 | 68 | 223 | 7.0 | 14.8 | 0.00 | 0.00 | 0.00 | 35 | 1005.9 |
| 20260504170108 | 68 | 243 | 7.8 | 12.2 | 0.00 | 0.00 | 0.00 | 35 | 1006.1 |
| 20260504081606 | 44 | 126 | 0.0 | 0.9 | 0.00 | 0.00 | 0.00 | 72 | 1008.8 |
| 20260504044535 | 35 | 215 | 0.0 | 1.7 | 0.00 | 0.00 | 0.00 | 83 | 1008.7 |
| 20260504043027 | 35 | 214 | 0.0 | 1.7 | 0.00 | 0.00 | 0.00 | 83 | 1008.8 |
| 20260504041524 | 35 | 210 | 0.9 | 1.7 | 0.00 | 0.00 | 0.00 | 82 | 1008.7 |
| 20260504040021 | 35 | 194 | 0.0 | 0.9 | 0.00 | 0.00 | 0.00 | 81 | 1008.6 |
| 20260504034524 | 36 | 202 | 0.9 | 1.7 | 0.00 | 0.00 | 0.00 | 81 | 1008.5 |
| 20260504033017 | 36 | 169 | 0.0 | 0.9 | 0.00 | 0.00 | 0.00 | 80 | 1008.4 |
| 20260504031517 | 36 | 161 | 0.0 | 0.9 | 0.00 | 0.00 | 0.00 | 79 | 1008.3 |
| 20260504030031 | 37 | 157 | 0.0 | 0.9 | 0.00 | 0.00 | 0.00 | 79 | 1008.4 |
| 20260504024512 | 37 | 156 | 0.0 | 1.7 | 0.00 | 0.00 | 0.00 | 78 | 1008.3 |
| 20260504023009 | 38 | 154 | 0.0 | 0.0 | 0.00 | 0.00 | 0.00 | 76 | 1008.3 |
| 20260504021507 | 39 | 154 | 0.0 | 0.9 | 0.00 | 0.00 | 0.00 | 74 | 1008.2 |
| 20260504020005 | 39 | 149 | 0.0 | 0.9 | 0.00 | 0.00 | 0.00 | 73 | 1008.1 |
| 20260504014506 | 40 | 152 | 0.0 | 0.9 | 0.00 | 0.00 | 0.00 | 70 | 1008.1 |